LPE2369 SPJC-SABE

Flight info

Callsign LPE2369
Flight time N/A
Altitude 35000
Route ILMAR UL302 ELASA UL650 RONUV/N0442F370 UL650 GEKAL UT691 LAR UW16 CBA UW24 SNT SNT9R
Aircraft A319/M-SDE3FGHIRWY/LB1

Departure

Time N/A
Airport Jorge Chávez International Airport (SPJC)

Arrival

Time 2026-05-03 21:14
Airport Aeroparque Jorge Newbery (SABE)
Time Latitude Longitude Altitude Speed Heading
2026-05-03 20:15 -31.29399 -64.23059 37011 ft 475 kts 138°
2026-05-03 20:15 -31.33634 -64.17102 37017 ft 476 kts 137°
2026-05-03 20:16 -31.37777 -64.11099 37016 ft 477 kts 137°
2026-05-03 20:16 -31.41916 -64.05022 37016 ft 477 kts 137°
2026-05-03 20:17 -31.46062 -63.98952 37010 ft 475 kts 137°
2026-05-03 20:17 -31.50198 -63.92922 37012 ft 475 kts 137°
2026-05-03 20:18 -31.54324 -63.86915 37008 ft 475 kts 137°
2026-05-03 20:18 -31.58470 -63.80854 37016 ft 475 kts 137°
2026-05-03 20:19 -31.62578 -63.74828 37012 ft 475 kts 137°
2026-05-03 20:19 -31.66708 -63.68769 37032 ft 475 kts 137°
2026-05-03 20:20 -31.70836 -63.62701 37029 ft 475 kts 137°
2026-05-03 20:20 -31.74967 -63.56633 37026 ft 475 kts 137°
2026-05-03 20:21 -31.79063 -63.50602 37024 ft 475 kts 137°
2026-05-03 20:21 -31.83188 -63.44518 37052 ft 475 kts 137°
2026-05-03 20:22 -31.87303 -63.38431 37035 ft 474 kts 137°
2026-05-03 20:22 -31.91385 -63.32377 37034 ft 474 kts 137°
2026-05-03 20:23 -31.95477 -63.26293 37032 ft 473 kts 137°
2026-05-03 20:23 -31.99553 -63.20240 37036 ft 473 kts 137°
2026-05-03 20:24 -32.03639 -63.14165 37016 ft 472 kts 137°
2026-05-03 20:24 -32.07720 -63.08077 36953 ft 473 kts 136°
2026-05-03 20:25 -32.11705 -63.02012 37013 ft 465 kts 136°
2026-05-03 20:25 -32.15705 -62.96014 37023 ft 469 kts 137°
2026-05-03 20:26 -32.19804 -62.89982 37018 ft 470 kts 137°
2026-05-03 20:26 -32.23881 -62.83910 37025 ft 471 kts 136°
2026-05-03 20:27 -32.27904 -62.77847 37017 ft 470 kts 136°
2026-05-03 20:27 -32.31938 -62.71760 37030 ft 470 kts 136°
2026-05-03 20:28 -32.35977 -62.65668 37039 ft 470 kts 136°
2026-05-03 20:28 -32.39980 -62.59612 37048 ft 470 kts 136°
2026-05-03 20:29 -32.44029 -62.53499 37046 ft 470 kts 136°
2026-05-03 20:29 -32.48065 -62.47405 37052 ft 470 kts 136°
2026-05-03 20:30 -32.52071 -62.41331 37051 ft 469 kts 136°
2026-05-03 20:30 -32.56084 -62.35220 36916 ft 469 kts 136°
2026-05-03 20:30 -32.58054 -62.32203 37025 ft 461 kts 136°
2026-05-03 20:31 -32.60033 -62.29183 37032 ft 464 kts 136°
2026-05-03 20:31 -32.64008 -62.23153 37032 ft 467 kts 136°
2026-05-03 20:32 -32.67323 -62.18098 37031 ft 466 kts 136°
2026-05-03 20:32 -32.71835 -62.10888 37055 ft 469 kts 133°
2026-05-03 20:33 -32.74904 -62.05553 37028 ft 470 kts 131°
2026-05-03 20:33 -32.78544 -61.99125 37038 ft 470 kts 132°
2026-05-03 20:34 -32.82249 -61.92719 37042 ft 469 kts 133°
2026-05-03 20:34 -32.85986 -61.86327 37054 ft 469 kts 133°
2026-05-03 20:35 -32.89541 -61.80229 37101 ft 460 kts 133°
2026-05-03 20:35 -32.93203 -61.73916 37040 ft 466 kts 132°
2026-05-03 20:36 -32.96793 -61.67712 37039 ft 467 kts 132°
2026-05-03 20:36 -33.00461 -61.61369 37041 ft 467 kts 132°
2026-05-03 20:37 -33.04151 -61.54984 37039 ft 467 kts 132°
2026-05-03 20:37 -33.07838 -61.48572 37042 ft 468 kts 132°
2026-05-03 20:38 -33.11497 -61.42202 37049 ft 468 kts 132°
2026-05-03 20:38 -33.15177 -61.35793 37048 ft 468 kts 132°
2026-05-03 20:39 -33.18862 -61.29370 37056 ft 468 kts 132°
2026-05-03 20:39 -33.22539 -61.22945 37078 ft 468 kts 132°
2026-05-03 20:40 -33.26185 -61.16553 37072 ft 467 kts 132°
2026-05-03 20:40 -33.29849 -61.10119 37071 ft 467 kts 132°
2026-05-03 20:41 -33.33498 -61.03682 37080 ft 467 kts 131°
2026-05-03 20:41 -33.37111 -60.97269 37076 ft 467 kts 131°
2026-05-03 20:42 -33.40740 -60.90817 37079 ft 466 kts 131°
2026-05-03 20:42 -33.44337 -60.84405 37073 ft 466 kts 131°
2026-05-03 20:43 -33.47952 -60.77964 37072 ft 465 kts 131°
2026-05-03 20:43 -33.51559 -60.71521 37078 ft 465 kts 131°
2026-05-03 20:44 -33.55137 -60.65102 37093 ft 465 kts 131°
2026-05-03 20:44 -33.58732 -60.58647 37084 ft 464 kts 131°
2026-05-03 20:45 -33.62308 -60.52217 37088 ft 462 kts 131°
2026-05-03 20:45 -33.65861 -60.45828 37091 ft 461 kts 131°
2026-05-03 20:46 -33.69424 -60.39408 36725 ft 463 kts 131°
2026-05-03 20:46 -33.71198 -60.36198 36457 ft 460 kts 131°
2026-05-03 20:46 -33.72965 -60.32992 36199 ft 459 kts 131°
2026-05-03 20:46 -33.74729 -60.29792 35949 ft 457 kts 131°
2026-05-03 20:47 -33.76481 -60.26612 35718 ft 455 kts 131°
2026-05-03 20:47 -33.78206 -60.23480 35281 ft 454 kts 131°
2026-05-03 20:47 -33.79967 -60.20286 34807 ft 453 kts 131°
2026-05-03 20:47 -33.81695 -60.17154 34339 ft 452 kts 131°
2026-05-03 20:48 -33.83428 -60.14007 34028 ft 446 kts 131°
2026-05-03 20:48 -33.85133 -60.10909 33619 ft 440 kts 131°
2026-05-03 20:48 -33.86809 -60.07897 33016 ft 437 kts 131°
2026-05-03 20:48 -33.88491 -60.04902 32514 ft 433 kts 131°
2026-05-03 20:49 -33.90188 -60.01889 32080 ft 431 kts 131°
2026-05-03 20:49 -33.91872 -59.98895 31646 ft 430 kts 131°
2026-05-03 20:49 -33.93561 -59.95894 31219 ft 440 kts 131°
2026-05-03 20:49 -33.95300 -59.92808 30519 ft 446 kts 131°
2026-05-03 20:50 -33.97032 -59.89709 29919 ft 446 kts 130°
2026-05-03 20:50 -33.98735 -59.86637 29368 ft 444 kts 130°
2026-05-03 20:50 -34.00441 -59.83543 28869 ft 441 kts 130°
2026-05-03 20:50 -34.02138 -59.80468 28345 ft 438 kts 130°
2026-05-03 20:51 -34.03826 -59.77419 27855 ft 435 kts 130°
2026-05-03 20:51 -34.05485 -59.74431 27361 ft 432 kts 130°
2026-05-03 20:51 -34.07159 -59.71421 26888 ft 429 kts 129°
2026-05-03 20:51 -34.08817 -59.68435 26434 ft 427 kts 129°
2026-05-03 20:52 -34.10460 -59.65468 25972 ft 424 kts 129°
2026-05-03 20:52 -34.12092 -59.62515 25673 ft 418 kts 129°
2026-05-03 20:52 -34.13667 -59.59657 25555 ft 407 kts 129°
2026-05-03 20:52 -34.15214 -59.56844 25438 ft 397 kts 129°
2026-05-03 20:53 -34.16748 -59.54052 25122 ft 393 kts 129°
2026-05-03 20:53 -34.18238 -59.51349 24753 ft 390 kts 129°
2026-05-03 20:53 -34.19737 -59.48634 24376 ft 387 kts 129°
2026-05-03 20:53 -34.21231 -59.45924 23996 ft 385 kts 129°
2026-05-03 20:54 -34.22714 -59.43228 23606 ft 384 kts 128°
2026-05-03 20:54 -34.25596 -59.37820 22718 ft 380 kts 127°
2026-05-03 20:54 -34.26986 -59.35160 22300 ft 378 kts 127°
2026-05-03 20:55 -34.28384 -59.32478 21879 ft 375 kts 127°
2026-05-03 20:55 -34.29773 -59.29815 21486 ft 372 kts 127°
2026-05-03 20:55 -34.31157 -59.27173 21086 ft 370 kts 127°
2026-05-03 20:55 -34.32542 -59.24538 20682 ft 368 kts 127°
2026-05-03 20:56 -34.33911 -59.21932 20282 ft 366 kts 127°
2026-05-03 20:56 -34.35253 -59.19377 20053 ft 357 kts 127°
2026-05-03 20:56 -34.36575 -59.16852 19626 ft 353 kts 127°
2026-05-03 20:56 -34.37891 -59.14339 19162 ft 351 kts 127°
2026-05-03 20:57 -34.39195 -59.11845 18698 ft 350 kts 127°
2026-05-03 20:57 -34.40480 -59.09390 18229 ft 348 kts 127°
2026-05-03 20:57 -34.41770 -59.06922 17715 ft 346 kts 127°
2026-05-03 20:57 -34.43056 -59.04460 17224 ft 343 kts 127°
2026-05-03 20:58 -34.44331 -59.02020 16746 ft 341 kts 126°
2026-05-03 20:58 -34.45592 -58.99602 16310 ft 338 kts 126°
2026-05-03 20:58 -34.46841 -58.97202 15865 ft 335 kts 126°
2026-05-03 20:58 -34.48098 -58.94893 15457 ft 330 kts 129°
2026-05-03 20:59 -34.49427 -58.92642 15098 ft 325 kts 130°
2026-05-03 20:59 -34.50783 -58.90368 14721 ft 321 kts 130°
2026-05-03 20:59 -34.52043 -58.88265 14380 ft 317 kts 130°
2026-05-03 20:59 -34.53335 -58.86115 14029 ft 313 kts 130°
2026-05-03 21:00 -34.54618 -58.83989 13607 ft 311 kts 130°
2026-05-03 21:00 -34.55465 -58.82592 13294 ft 311 kts 130°
2026-05-03 21:00 -34.57183 -58.79772 12723 ft 308 kts 130°
2026-05-03 21:00 -34.58446 -58.77713 12329 ft 306 kts 130°
2026-05-03 21:01 -34.59712 -58.75660 11962 ft 303 kts 130°
2026-05-03 21:01 -34.60970 -58.73630 11597 ft 300 kts 130°
2026-05-03 21:01 -34.62227 -58.71612 11261 ft 297 kts 130°
2026-05-03 21:01 -34.63457 -58.69647 10892 ft 296 kts 130°
2026-05-03 21:02 -34.64735 -58.67619 10461 ft 297 kts 130°
2026-05-03 21:02 -34.65995 -58.65631 10037 ft 298 kts 130°
2026-05-03 21:02 -34.67251 -58.63662 9581 ft 298 kts 130°
2026-05-03 21:02 -34.68525 -58.61677 9114 ft 298 kts 130°
2026-05-03 21:03 -34.69807 -58.59687 8661 ft 298 kts 130°
2026-05-03 21:03 -34.71090 -58.57711 8205 ft 297 kts 130°
2026-05-03 21:03 -34.72367 -58.55750 7912 ft 290 kts 130°
2026-05-03 21:03 -34.73596 -58.53853 7666 ft 282 kts 129°
2026-05-03 21:04 -34.74785 -58.52023 7427 ft 275 kts 130°
2026-05-03 21:04 -34.75956 -58.50216 7173 ft 268 kts 129°
2026-05-03 21:04 -34.77101 -58.48451 6962 ft 262 kts 130°
2026-05-03 21:04 -34.78221 -58.46730 6706 ft 256 kts 130°
2026-05-03 21:05 -34.79323 -58.45038 6464 ft 253 kts 130°
2026-05-03 21:05 -34.80397 -58.43396 6214 ft 250 kts 130°
2026-05-03 21:05 -34.81382 -58.41658 5960 ft 249 kts 114°
2026-05-03 21:05 -34.81735 -58.39634 5775 ft 244 kts 85°
2026-05-03 21:06 -34.81350 -58.37662 5657 ft 237 kts 58°
2026-05-03 21:06 -34.80372 -58.36092 5531 ft 231 kts 41°
2026-05-03 21:06 -34.79265 -58.34663 5408 ft 231 kts 41°
2026-05-03 21:06 -34.78190 -58.33267 5276 ft 220 kts 41°
2026-05-03 21:07 -34.77182 -58.31951 5128 ft 211 kts 41°
2026-05-03 21:07 -34.76181 -58.30650 4824 ft 210 kts 41°
2026-05-03 21:07 -34.75189 -58.29362 4582 ft 205 kts 41°
2026-05-03 21:07 -34.74214 -58.28094 4515 ft 205 kts 41°
2026-05-03 21:08 -34.73242 -58.26833 4377 ft 203 kts 41°
2026-05-03 21:08 -34.72293 -58.25609 4329 ft 198 kts 39°
2026-05-03 21:08 -34.71207 -58.24640 4202 ft 190 kts 22°
2026-05-03 21:08 -34.69985 -58.24075 4012 ft 186 kts
2026-05-03 21:09 -34.68731 -58.23905 3751 ft 177 kts 357°
2026-05-03 21:09 -34.67533 -58.23854 3520 ft 171 kts 356°
2026-05-03 21:09 -34.66402 -58.24098 3281 ft 161 kts 338°
2026-05-03 21:09 -34.65451 -58.24755 3075 ft 155 kts 322°
2026-05-03 21:10 -34.64744 -58.25721 2883 ft 153 kts 306°
2026-05-03 21:10 -34.64156 -58.26791 2688 ft 151 kts 308°
2026-05-03 21:10 -34.63575 -58.27834 2492 ft 150 kts 308°
2026-05-03 21:10 -34.62986 -58.28887 2298 ft 151 kts 308°
2026-05-03 21:11 -34.62393 -58.29952 2104 ft 153 kts 308°
2026-05-03 21:11 -34.61797 -58.31025 1912 ft 152 kts 308°
2026-05-03 21:11 -34.61215 -58.32074 1718 ft 144 kts 309°
2026-05-03 21:11 -34.60669 -58.33058 1515 ft 138 kts 310°
2026-05-03 21:12 -34.60147 -58.33998 1345 ft 134 kts 310°
2026-05-03 21:12 -34.59627 -58.34931 1170 ft 133 kts 311°
2026-05-03 21:12 -34.59105 -58.35864 990 ft 133 kts 311°
2026-05-03 21:12 -34.58583 -58.36802 810 ft 135 kts 307°
2026-05-03 21:13 -34.58070 -58.37753 631 ft 133 kts 308°
2026-05-03 21:13 -34.57539 -58.38707 479 ft 138 kts 308°
2026-05-03 21:13 -34.56992 -58.39645 308 ft 136 kts 307°
2026-05-03 21:13 -34.56478 -58.40592 69 ft 133 kts 306°
2026-05-03 21:14 -34.56011 -58.41423 27 ft 110 kts 306°
2026-05-03 21:14 -34.55650 -58.42074 27 ft 67 kts 304°
2026-05-03 21:14 -34.55455 -58.42419 27 ft 32 kts 304°
2026-05-03 21:14 -34.55373 -58.42484 25 ft 11 kts 48°
2026-05-03 21:15 -34.55370 -58.42383 25 ft 12 kts 107°
2026-05-03 21:15 -34.55392 -58.42339 25 ft 5 kts 128°
2026-05-03 21:15 -34.55416 -58.42301 26 ft 6 kts 127°
2026-05-03 21:15 -34.55446 -58.42254 26 ft 8 kts 126°
2026-05-03 21:16 -34.55484 -58.42191 27 ft 10 kts 126°
2026-05-03 21:16 -34.55530 -58.42116 27 ft 12 kts 127°
2026-05-03 21:16 -34.55580 -58.42035 27 ft 8 kts 126°
2026-05-03 21:16 -34.55611 -58.41981 26 ft 9 kts 125°
2026-05-03 21:17 -34.55647 -58.41916 29 ft 10 kts 123°
2026-05-03 21:17 -34.55646 -58.41867 28 ft 10 kts 51°
2026-05-03 21:17 -34.55599 -58.41828 25 ft 5 kts 30°
2026-05-03 21:17 -34.55571 -58.41808 25 ft 4 kts 34°
2026-05-03 21:18 -34.55547 -58.41789 25 ft 5 kts 34°
2026-05-03 21:18 -34.55523 -58.41768 25 ft 3 kts 34°
2026-05-03 21:18 -34.55509 -58.41757 25 ft 0 kts 34°